Bradford, PA

3:50 AM EST on December 10, 2019 (GMT -0500)
Bradford Regional

Weather History for KBFD - August, 2019

Change the Weather History Date:

Saturday, August 17, 2019

  Actual Average Record
Temperature  
Mean Temperature 66 °F 64 °F  
Max Temperature 78 °F 76 °F 88 °F (1988)
Min Temperature 53 °F 52 °F 34 °F (1979)
Degree Days  
Heating Degree Days 0 1  
Month to date heating degree days 11 9  
Since 1 June heating degree days 145 218  
Since 1 July heating degree days 23 73  
Cooling Degree Days 1 2  
Month to date cooling degree days 41 34  
Year to date cooling degree days 231 158  
Since 1 June cooling degree days 224 148  
Growing Degree Days 15 (Base 50)    
Moisture  
Dew Point 59 °F    
Average Humidity 82    
Maximum Humidity 100    
Minimum Humidity 64    
Precipitation  
Precipitation 0.27 in 0.14 in 1.54 in (1969)
Month to date precipitation 3.16 2.27  
Year to date precipitation 31.13 28.11  
Sea Level Pressure  
Sea Level Pressure 30.03 in    
Wind  
Wind Speed 4 mph (SSE)    
Max Wind Speed 38 mph    
Max Gust Speed 54 mph    
Visibility 6 miles    
Events Fog , Rain , Thunderstorm    
T = Trace of Precipitation, MM = Missing Value Source: NWS Daily Summary

Daily Weather History Graph

Daily Weather History Graph

Search for Another Location

Airport or City:

Astronomy

Aug. 17, 2019 Rise Set
Actual Time 6:24 AM EDT 8:11 PM EDT
Civil Twilight 5:54 AM EDT 8:41 PM EDT
Nautical Twilight 5:18 AM EDT 9:17 PM EDT
Astronomical Twilight 4:39 AM EDT 9:56 PM EDT
Moon 9:37 PM EDT (8/17) 8:12 AM EDT (8/17)
Length of Visible Light 14h 46m
Length of Day
13h 47m
Waning Gibbous, 96% of the Moon is Illuminated
Aug 17
Waning Gibbous
Aug 23
Last Quarter
Aug 30
New
Sep 5
First Quarter
Sep 14
Full

Hourly Weather History & Observations

Time (EDT) Temp. Dew Point Humidity Pressure Visibility Wind Dir Wind Speed Gust Speed Precip Events Conditions
12:13 AM 57.9 °F 57.9 °F 100% 30.05 in 3.0 mi ESE 3.5 mph - N/A   Clear
12:35 AM 57.9 °F 57.0 °F 97% 30.05 in 2.5 mi Calm Calm - N/A   Clear
12:44 AM 57.9 °F 57.0 °F 97% 30.05 in 6.0 mi Calm Calm - N/A   Clear
12:53 AM 57.9 °F 57.0 °F 97% 30.01 in 6.0 mi Calm Calm - N/A   Clear
12:57 AM 57.9 °F 57.0 °F 97% 30.05 in 1.8 mi ESE 3.5 mph - N/A   Clear
1:02 AM 57.0 °F 57.0 °F 100% 30.05 in 1.0 mi Calm Calm - N/A   Mist
1:09 AM 57.0 °F 57.0 °F 100% 30.05 in 0.5 mi Calm Calm - N/A Fog Fog
1:23 AM 57.0 °F 57.0 °F 100% 30.05 in 1.5 mi Calm Calm - N/A   Partly Cloudy
1:25 AM 57.0 °F 57.0 °F 100% 30.05 in 3.0 mi Calm Calm - N/A   Partly Cloudy
1:42 AM 57.0 °F 55.9 °F 96% 30.05 in 10.0 mi Calm Calm - N/A   Clear
1:53 AM 57.0 °F 55.9 °F 96% 30.01 in 1.5 mi Calm Calm - N/A   Clear
2:02 AM 57.0 °F 55.9 °F 96% 30.05 in 2.0 mi Calm Calm - N/A   Partly Cloudy
2:10 AM 57.0 °F 55.9 °F 96% 30.04 in 4.0 mi Calm Calm - N/A   Partly Cloudy
2:13 AM 55.9 °F 55.9 °F 100% 30.05 in 1.8 mi Calm Calm - N/A   Partly Cloudy
2:17 AM 55.9 °F 55.9 °F 100% 30.05 in 0.8 mi Calm Calm - N/A   Mist
2:27 AM 55.9 °F 55.0 °F 97% 30.04 in 1.2 mi ESE 4.6 mph - N/A   Scattered Clouds
2:35 AM 54.0 °F 54.0 °F 100% 30.04 in 2.0 mi SE 4.6 mph - N/A   Partly Cloudy
2:44 AM 55.0 °F 55.0 °F 100% 30.05 in 5.0 mi SE 3.5 mph - N/A   Partly Cloudy
2:53 AM 55.0 °F 54.0 °F 96% 30.01 in 5.0 mi Calm Calm - N/A   Clear
3:08 AM 55.9 °F 55.0 °F 97% 30.04 in 2.0 mi Calm Calm - N/A   Partly Cloudy
3:23 AM 55.9 °F 55.0 °F 97% 30.04 in 6.0 mi Calm Calm - N/A   Partly Cloudy
3:53 AM 54.0 °F 53.1 °F 97% 30.01 in 8.0 mi Calm Calm - N/A   Clear
4:22 AM 55.0 °F 53.1 °F 93% 30.04 in 7.0 mi ESE 3.5 mph - N/A   Scattered Clouds
4:31 AM 54.0 °F 53.1 °F 97% 30.04 in 7.0 mi Calm Calm - N/A   Mostly Cloudy
4:53 AM 54.0 °F 53.1 °F 97% 30.01 in 2.0 mi Calm Calm - N/A   Overcast
4:58 AM 53.1 °F 53.1 °F 100% 30.05 in 0.8 mi Calm Calm - N/A   Mist
5:22 AM 53.1 °F 53.1 °F 100% 30.05 in 2.0 mi SE 4.6 mph - N/A   Overcast
5:34 AM 54.0 °F 53.1 °F 97% 30.05 in 1.2 mi SE 3.5 mph - N/A   Mostly Cloudy
5:46 AM 54.0 °F 54.0 °F 100% 30.05 in 2.0 mi SE 3.5 mph - N/A   Scattered Clouds
5:53 AM 54.0 °F 54.0 °F 100% 30.01 in 2.5 mi SE 3.5 mph - N/A   Partly Cloudy
6:02 AM 54.0 °F 53.1 °F 97% 30.04 in 6.0 mi SE 4.6 mph - N/A   Clear
6:43 AM 55.0 °F 55.0 °F 100% 30.04 in 2.5 mi SE 4.6 mph - N/A   Clear
6:53 AM 55.0 °F 55.0 °F 100% 30.00 in 2.5 mi SE 3.5 mph - N/A   Clear
7:02 AM 55.0 °F 55.0 °F 100% 30.04 in 4.0 mi Calm Calm - N/A   Clear
7:53 AM 61.0 °F 60.1 °F 97% 30.00 in 8.0 mi ESE 4.6 mph - N/A   Clear
8:53 AM 70.0 °F 62.1 °F 76% 29.99 in 10.0 mi Variable 3.5 mph - N/A   Mostly Cloudy
9:53 AM 73.9 °F 63.0 °F 68% 29.99 in 10.0 mi South 10.4 mph 17.3 mph N/A   Scattered Clouds
10:53 AM 75.0 °F 63.0 °F 66% 30.01 in 10.0 mi SW 12.7 mph 18.4 mph N/A   Mostly Cloudy
11:53 AM 73.9 °F 64.0 °F 71% 30.02 in 7.0 mi WSW 6.9 mph - 0.01 in Rain Light Rain
12:53 PM 73.9 °F 66.0 °F 76% 30.01 in 10.0 mi South 8.1 mph - 0.01 in   Scattered Clouds
1:53 PM 77.0 °F 64.9 °F 66% 30.00 in 10.0 mi SW 9.2 mph - N/A   Mostly Cloudy
2:37 PM 77.0 °F 64.9 °F 66% 30.03 in 10.0 mi SW 8.1 mph - N/A Thunderstorm Mostly Cloudy
2:50 PM 75.2 °F 64.4 °F 69% 30.03 in 10.0 mi SW 8.1 mph - N/A Thunderstorm Thunderstorm
2:53 PM 75.9 °F 64.9 °F 69% 29.99 in 10.0 mi SW 6.9 mph - N/A Thunderstorm Thunderstorm
3:05 PM 75.0 °F 66.0 °F 73% 30.03 in 10.0 mi Variable 5.8 mph - N/A   Mostly Cloudy
3:12 PM 75.0 °F 66.0 °F 73% 30.02 in 10.0 mi SW 4.6 mph - N/A Thunderstorm Thunderstorm
3:33 PM 75.0 °F 66.0 °F 73% 30.01 in 10.0 mi Calm Calm - 0.00 in Thunderstorm Partly Cloudy
3:40 PM 73.9 °F 64.9 °F 73% 30.05 in 8.0 mi WNW 35.7 mph 54.1 mph 0.01 in Thunderstorm Unknown
3:44 PM 64.9 °F 60.1 °F 84% 30.04 in 1.2 mi NNW 33.4 mph 54.1 mph 0.07 in Rain , Thunderstorm Thunderstorms and Rain
3:57 PM 63.0 °F 61.0 °F 93% 30.03 in 3.0 mi NNE 8.1 mph 17.3 mph 0.00 in Rain , Thunderstorm Light Thunderstorms and Rain
4:17 PM 64.0 °F 63.0 °F 96% 30.02 in 10.0 mi Calm Calm - 0.04 in Thunderstorm Overcast
4:40 PM 64.0 °F 63.0 °F 96% 30.03 in 1.8 mi ESE 4.6 mph - 0.12 in Rain , Thunderstorm Heavy Rain
4:47 PM 64.4 °F 64.4 °F 100% 30.02 in 2.5 mi East 4.6 mph - 0.13 in Rain , Thunderstorm Light Thunderstorms and Rain
4:53 PM 64.9 °F 64.0 °F 97% 30.00 in 10.0 mi Calm Calm - 0.13 in Thunderstorm Thunderstorm
5:53 PM 73.9 °F 66.9 °F 79% 30.00 in 10.0 mi Calm Calm - N/A   Partly Cloudy
6:53 PM 73.0 °F 68.0 °F 84% 30.00 in 10.0 mi Calm Calm - N/A   Clear
7:53 PM 70.0 °F 69.1 °F 97% 29.99 in 10.0 mi SSE 3.5 mph - N/A   Clear
8:53 PM 69.1 °F 66.9 °F 93% 29.98 in 10.0 mi SSW 4.6 mph - N/A   Clear
9:53 PM 68.0 °F 64.9 °F 90% 29.99 in 10.0 mi South 4.6 mph - N/A   Clear
10:53 PM 66.9 °F 64.9 °F 93% 29.99 in 10.0 mi Calm Calm - N/A   Clear
11:53 PM 66.0 °F 63.0 °F 90% 30.00 in 10.0 mi Calm Calm - N/A   Clear